Year,Month,Day,Hour,Minute,Value (Times are PST for temperature in C)
2013,05,05,00,00,12.60
2013,05,05,00,01,12.60
2013,05,05,00,02,12.60
2013,05,05,00,03,12.60
2013,05,05,00,04,12.50
2013,05,05,00,05,12.50
2013,05,05,00,06,12.50
2013,05,05,00,07,12.50
2013,05,05,00,08,12.50
2013,05,05,00,09,12.40
2013,05,05,00,10,12.40
2013,05,05,00,11,12.30
2013,05,05,00,12,12.30
2013,05,05,00,13,12.30
2013,05,05,00,14,12.30
2013,05,05,00,15,12.30
2013,05,05,00,16,12.30
2013,05,05,00,17,12.30
2013,05,05,00,18,12.30
2013,05,05,00,19,12.30
2013,05,05,00,20,12.30
2013,05,05,00,21,12.30
2013,05,05,00,22,12.30
2013,05,05,00,23,12.30
2013,05,05,00,24,12.30
2013,05,05,00,25,12.20
2013,05,05,00,26,12.20
2013,05,05,00,27,12.20
2013,05,05,00,28,12.20
2013,05,05,00,29,12.20
2013,05,05,00,30,12.10
2013,05,05,00,31,12.10
2013,05,05,00,32,12.10
2013,05,05,00,33,12.00
2013,05,05,00,34,12.00
2013,05,05,00,35,12.00
2013,05,05,00,36,11.90
2013,05,05,00,37,11.90
2013,05,05,00,38,11.90
2013,05,05,00,39,11.90
2013,05,05,00,40,11.90
2013,05,05,00,41,11.90
2013,05,05,00,42,11.90
2013,05,05,00,43,11.80
2013,05,05,00,44,11.80
2013,05,05,00,45,11.80
2013,05,05,00,46,11.80
2013,05,05,00,47,11.80
2013,05,05,00,48,11.80
2013,05,05,00,49,11.80
2013,05,05,00,50,11.80
2013,05,05,00,51,11.80
2013,05,05,00,52,11.80
2013,05,05,00,53,11.80
2013,05,05,00,54,11.80
2013,05,05,00,55,11.80
2013,05,05,00,56,11.80
2013,05,05,00,57,11.80
2013,05,05,00,58,11.80
2013,05,05,00,59,11.80
2013,05,05,01,00,11.70
2013,05,05,01,01,11.70
2013,05,05,01,02,11.70
2013,05,05,01,03,11.60
2013,05,05,01,04,11.60
2013,05,05,01,05,11.60
2013,05,05,01,06,11.60
2013,05,05,01,07,11.60
2013,05,05,01,08,11.60
2013,05,05,01,09,11.60
2013,05,05,01,10,11.60
2013,05,05,01,11,11.60
2013,05,05,01,12,11.60
2013,05,05,01,13,11.50
2013,05,05,01,14,11.40
2013,05,05,01,15,11.40
2013,05,05,01,16,11.40
2013,05,05,01,17,11.40
2013,05,05,01,18,11.40
2013,05,05,01,19,11.40
2013,05,05,01,20,11.40
2013,05,05,01,21,11.40
2013,05,05,01,22,11.40
2013,05,05,01,23,11.30
2013,05,05,01,24,11.30
2013,05,05,01,25,11.30
2013,05,05,01,26,11.30
2013,05,05,01,27,11.30
2013,05,05,01,28,11.20
2013,05,05,01,29,11.20
2013,05,05,01,30,11.20
2013,05,05,01,31,11.20
2013,05,05,01,32,11.20
2013,05,05,01,33,11.10
2013,05,05,01,34,11.10
2013,05,05,01,35,11.10
2013,05,05,01,36,11.10
2013,05,05,01,37,11.10
2013,05,05,01,38,11.10
2013,05,05,01,39,11.10
2013,05,05,01,40,11.10
2013,05,05,01,41,11.10
2013,05,05,01,42,11.10
2013,05,05,01,43,11.10
2013,05,05,01,44,11.10
2013,05,05,01,45,11.10
2013,05,05,01,46,11.10
2013,05,05,01,47,11.10
2013,05,05,01,48,11.10
2013,05,05,01,49,11.10
2013,05,05,01,50,11.10
2013,05,05,01,51,11.10
2013,05,05,01,52,11.10
2013,05,05,01,53,11.10
2013,05,05,01,54,11.00
2013,05,05,01,55,10.90
2013,05,05,01,56,10.90
2013,05,05,01,57,10.90
2013,05,05,01,58,10.90
2013,05,05,01,59,10.90
2013,05,05,02,00,10.90
2013,05,05,02,01,10.90
2013,05,05,02,02,10.80
2013,05,05,02,03,10.80
2013,05,05,02,04,10.80
2013,05,05,02,05,10.70
2013,05,05,02,06,10.70
2013,05,05,02,07,10.70
2013,05,05,02,08,10.70
2013,05,05,02,09,10.70
2013,05,05,02,10,10.70
2013,05,05,02,11,10.70
2013,05,05,02,12,10.60
2013,05,05,02,13,10.60
2013,05,05,02,14,10.60
2013,05,05,02,15,10.60
2013,05,05,02,16,10.60
2013,05,05,02,17,10.60
2013,05,05,02,18,10.60
2013,05,05,02,19,10.60
2013,05,05,02,20,10.60
2013,05,05,02,21,10.60
2013,05,05,02,22,10.60
2013,05,05,02,23,10.60
2013,05,05,02,24,10.60
2013,05,05,02,25,10.60
2013,05,05,02,26,10.50
2013,05,05,02,27,10.40
2013,05,05,02,28,10.40
2013,05,05,02,29,10.40
2013,05,05,02,30,10.40
2013,05,05,02,31,10.40
2013,05,05,02,32,10.40
2013,05,05,02,33,10.40
2013,05,05,02,34,10.40
2013,05,05,02,35,10.40
2013,05,05,02,36,10.40
2013,05,05,02,37,10.40
2013,05,05,02,38,10.40
2013,05,05,02,39,10.50
2013,05,05,02,40,10.60
2013,05,05,02,41,10.60
2013,05,05,02,42,10.60
2013,05,05,02,43,10.60
2013,05,05,02,44,10.60
2013,05,05,02,45,10.60
2013,05,05,02,46,10.60
2013,05,05,02,47,10.60
2013,05,05,02,48,10.60
2013,05,05,02,49,10.60
2013,05,05,02,50,10.60
2013,05,05,02,51,10.60
2013,05,05,02,52,10.60
2013,05,05,02,53,10.60
2013,05,05,02,54,10.60
2013,05,05,02,55,10.60
2013,05,05,02,56,10.60
2013,05,05,02,57,10.60
2013,05,05,02,58,10.60
2013,05,05,02,59,10.60
2013,05,05,03,00,10.60
2013,05,05,03,01,10.60
2013,05,05,03,02,10.60
2013,05,05,03,03,10.60
2013,05,05,03,04,10.60
2013,05,05,03,05,10.60
2013,05,05,03,06,10.60
2013,05,05,03,07,10.60
2013,05,05,03,08,10.60
2013,05,05,03,09,10.60
2013,05,05,03,10,10.60
2013,05,05,03,11,10.60
2013,05,05,03,12,10.60
2013,05,05,03,13,10.60
2013,05,05,03,14,10.60
2013,05,05,03,15,10.60
2013,05,05,03,16,10.50
2013,05,05,03,17,10.40
2013,05,05,03,18,10.40
2013,05,05,03,19,10.40
2013,05,05,03,20,10.40
2013,05,05,03,21,10.40
2013,05,05,03,22,10.40
2013,05,05,03,23,10.40
2013,05,05,03,24,10.40
2013,05,05,03,25,10.40
2013,05,05,03,26,10.40
2013,05,05,03,27,10.30
2013,05,05,03,28,10.30
2013,05,05,03,29,10.30
2013,05,05,03,30,10.30
2013,05,05,03,31,10.30
2013,05,05,03,32,10.30
2013,05,05,03,33,10.30
2013,05,05,03,34,10.30
2013,05,05,03,35,10.30
2013,05,05,03,36,10.30
2013,05,05,03,37,10.30
2013,05,05,03,38,10.30
2013,05,05,03,39,10.30
2013,05,05,03,40,10.30
2013,05,05,03,41,10.30
2013,05,05,03,42,10.30
2013,05,05,03,43,10.30
2013,05,05,03,44,10.20
2013,05,05,03,45,10.20
2013,05,05,03,46,10.20
2013,05,05,03,47,10.20
2013,05,05,03,48,10.20
2013,05,05,03,49,10.20
2013,05,05,03,50,10.20
2013,05,05,03,51,10.20
2013,05,05,03,52,10.10
2013,05,05,03,53,10.10
2013,05,05,03,54,10.10
2013,05,05,03,55,10.10
2013,05,05,03,56,10.10
2013,05,05,03,57,10.10
2013,05,05,03,58,10.10
2013,05,05,03,59,10.10
2013,05,05,04,00,10.20
2013,05,05,04,01,10.20
2013,05,05,04,02,10.20
2013,05,05,04,03,10.20
2013,05,05,04,04,10.30
2013,05,05,04,05,10.30
2013,05,05,04,06,10.30
2013,05,05,04,07,10.30
2013,05,05,04,08,10.30
2013,05,05,04,09,10.40
2013,05,05,04,10,10.40
2013,05,05,04,11,10.40
2013,05,05,04,12,10.40
2013,05,05,04,13,10.30
2013,05,05,04,14,10.30
2013,05,05,04,15,10.30
2013,05,05,04,16,10.30
2013,05,05,04,17,10.30
2013,05,05,04,18,10.30
2013,05,05,04,19,10.20
2013,05,05,04,20,10.20
2013,05,05,04,21,10.20
2013,05,05,04,22,10.20
2013,05,05,04,23,10.20
2013,05,05,04,24,10.20
2013,05,05,04,25,10.20
2013,05,05,04,26,10.20
2013,05,05,04,27,10.20
2013,05,05,04,28,10.20
2013,05,05,04,29,10.30
2013,05,05,04,30,10.30
2013,05,05,04,31,10.30
2013,05,05,04,32,10.30
2013,05,05,04,33,10.20
2013,05,05,04,34,10.20
2013,05,05,04,35,10.20
2013,05,05,04,36,10.20
2013,05,05,04,37,10.30
2013,05,05,04,38,10.30
2013,05,05,04,39,10.30
2013,05,05,04,40,10.30
2013,05,05,04,41,10.30
2013,05,05,04,42,10.30
2013,05,05,04,43,10.30
2013,05,05,04,44,10.30
2013,05,05,04,45,10.30
2013,05,05,04,46,10.30
2013,05,05,04,47,10.20
2013,05,05,04,48,10.20
2013,05,05,04,49,10.20
2013,05,05,04,50,10.10
2013,05,05,04,51,10.10
2013,05,05,04,52,10.10
2013,05,05,04,53,10.10
2013,05,05,04,54,10.10
2013,05,05,04,55,10.10
2013,05,05,04,56,10.10
2013,05,05,04,57,10.10
2013,05,05,04,58,10.10
2013,05,05,04,59,10.00
2013,05,05,05,00,9.90
2013,05,05,05,01,9.90
2013,05,05,05,02,9.90
2013,05,05,05,03,9.90
2013,05,05,05,04,9.90
2013,05,05,05,05,9.90
2013,05,05,05,06,9.90
2013,05,05,05,07,9.90
2013,05,05,05,08,9.90
2013,05,05,05,09,9.90
2013,05,05,05,10,9.90
2013,05,05,05,11,9.90
2013,05,05,05,12,9.90
2013,05,05,05,13,9.90
2013,05,05,05,14,9.90
2013,05,05,05,15,9.90
2013,05,05,05,16,9.90
2013,05,05,05,17,9.90
2013,05,05,05,18,9.90
2013,05,05,05,19,10.00
2013,05,05,05,20,10.10
2013,05,05,05,21,10.10
2013,05,05,05,22,10.10
2013,05,05,05,23,10.10
2013,05,05,05,24,10.10
2013,05,05,05,25,10.10
2013,05,05,05,26,10.10
2013,05,05,05,27,10.10
2013,05,05,05,28,10.10
2013,05,05,05,29,10.00
2013,05,05,05,30,9.90
2013,05,05,05,31,9.90
2013,05,05,05,32,9.90
2013,05,05,05,33,9.90
2013,05,05,05,34,9.90
2013,05,05,05,35,9.90
2013,05,05,05,36,9.90
2013,05,05,05,37,9.90
2013,05,05,05,38,9.90
2013,05,05,05,39,9.90
2013,05,05,05,40,9.80
2013,05,05,05,41,9.80
2013,05,05,05,42,9.80
2013,05,05,05,43,9.80
2013,05,05,05,44,9.80
2013,05,05,05,45,9.80
2013,05,05,05,46,9.70
2013,05,05,05,47,9.70
2013,05,05,05,48,9.70
2013,05,05,05,49,9.70
2013,05,05,05,50,9.70
2013,05,05,05,51,9.70
2013,05,05,05,52,9.70
2013,05,05,05,53,9.60
2013,05,05,05,54,9.60
2013,05,05,05,55,9.60
2013,05,05,05,56,9.60
2013,05,05,05,57,9.50
2013,05,05,05,58,9.50
2013,05,05,05,59,9.50
2013,05,05,06,00,9.50
2013,05,05,06,01,9.50
2013,05,05,06,02,9.40
2013,05,05,06,03,9.40
2013,05,05,06,04,9.40
2013,05,05,06,05,9.40
2013,05,05,06,06,9.40
2013,05,05,06,07,9.40
2013,05,05,06,08,9.40
2013,05,05,06,09,9.40
2013,05,05,06,10,9.40
2013,05,05,06,11,9.40
2013,05,05,06,12,9.50
2013,05,05,06,13,9.50
2013,05,05,06,14,9.50
2013,05,05,06,15,9.60
2013,05,05,06,16,9.60
2013,05,05,06,17,9.70
2013,05,05,06,18,9.70
2013,05,05,06,19,9.70
2013,05,05,06,20,9.70
2013,05,05,06,21,9.80
2013,05,05,06,22,9.80
2013,05,05,06,23,9.80
2013,05,05,06,24,9.80
2013,05,05,06,25,9.80
2013,05,05,06,26,9.80
2013,05,05,06,27,9.80
2013,05,05,06,28,9.80
2013,05,05,06,29,9.80
2013,05,05,06,30,9.80
2013,05,05,06,31,9.80
2013,05,05,06,32,9.80
2013,05,05,06,33,9.90
2013,05,05,06,34,9.90
2013,05,05,06,35,9.90
2013,05,05,06,36,10.00
2013,05,05,06,37,10.10
2013,05,05,06,38,10.10
2013,05,05,06,39,10.20
2013,05,05,06,40,10.30
2013,05,05,06,41,10.30
2013,05,05,06,42,10.40
2013,05,05,06,43,10.40
2013,05,05,06,44,10.40
2013,05,05,06,45,10.40
2013,05,05,06,46,10.50
2013,05,05,06,47,10.60
2013,05,05,06,48,10.70
2013,05,05,06,49,10.70
2013,05,05,06,50,10.70
2013,05,05,06,51,10.70
2013,05,05,06,52,10.70
2013,05,05,06,53,10.70
2013,05,05,06,54,10.70
2013,05,05,06,55,10.70
2013,05,05,06,56,10.70
2013,05,05,06,57,10.80
2013,05,05,06,58,10.80
2013,05,05,06,59,10.80
2013,05,05,07,00,10.80
2013,05,05,07,01,10.80
2013,05,05,07,02,10.90
2013,05,05,07,03,10.90
2013,05,05,07,04,10.90
2013,05,05,07,05,10.90
2013,05,05,07,06,10.90
2013,05,05,07,07,11.00
2013,05,05,07,08,11.10
2013,05,05,07,09,11.10
2013,05,05,07,10,11.10
2013,05,05,07,11,11.10
2013,05,05,07,12,11.10
2013,05,05,07,13,11.10
2013,05,05,07,14,11.10
2013,05,05,07,15,11.20
2013,05,05,07,16,11.20
2013,05,05,07,17,11.20
2013,05,05,07,18,11.20
2013,05,05,07,19,11.30
2013,05,05,07,20,11.30
2013,05,05,07,21,11.40
2013,05,05,07,22,11.40
2013,05,05,07,23,11.50
2013,05,05,07,24,11.60
2013,05,05,07,25,11.60
2013,05,05,07,26,11.70
2013,05,05,07,27,11.80
2013,05,05,07,28,11.90
2013,05,05,07,29,12.00
2013,05,05,07,30,12.10
2013,05,05,07,31,12.10
2013,05,05,07,32,12.20
2013,05,05,07,33,12.30
2013,05,05,07,34,12.30
2013,05,05,07,35,12.30
2013,05,05,07,36,12.30
2013,05,05,07,37,12.40
2013,05,05,07,38,12.40
2013,05,05,07,39,12.50
2013,05,05,07,40,12.50
2013,05,05,07,41,12.50
2013,05,05,07,42,12.60
2013,05,05,07,43,12.60
2013,05,05,07,44,12.70
2013,05,05,07,45,12.80
2013,05,05,07,46,12.80
2013,05,05,07,47,12.80
2013,05,05,07,48,12.80
2013,05,05,07,49,12.90
2013,05,05,07,50,13.00
2013,05,05,07,51,13.10
2013,05,05,07,52,13.20
2013,05,05,07,53,13.20
2013,05,05,07,54,13.30
2013,05,05,07,55,13.30
2013,05,05,07,56,13.30
2013,05,05,07,57,13.40
2013,05,05,07,58,13.50
2013,05,05,07,59,13.60
2013,05,05,08,00,13.70
2013,05,05,08,01,13.80
2013,05,05,08,02,13.90
2013,05,05,08,03,14.00
2013,05,05,08,04,14.10
2013,05,05,08,05,14.20
2013,05,05,08,06,14.20
2013,05,05,08,07,14.20
2013,05,05,08,08,14.20
2013,05,05,08,09,14.30
2013,05,05,08,10,14.30
2013,05,05,08,11,14.40
2013,05,05,08,12,14.40
2013,05,05,08,13,14.50
2013,05,05,08,14,14.60
2013,05,05,08,15,14.60
2013,05,05,08,16,14.70
2013,05,05,08,17,14.80
2013,05,05,08,18,14.80
2013,05,05,08,19,14.90
2013,05,05,08,20,15.00
2013,05,05,08,21,15.10
2013,05,05,08,22,15.10
2013,05,05,08,23,15.20
2013,05,05,08,24,15.30
2013,05,05,08,25,15.30
2013,05,05,08,26,15.40
2013,05,05,08,27,15.50
2013,05,05,08,28,15.50
2013,05,05,08,29,15.60
2013,05,05,08,30,15.70
2013,05,05,08,31,15.70
2013,05,05,08,32,15.80
2013,05,05,08,33,15.80
2013,05,05,08,34,15.90
2013,05,05,08,35,16.00
2013,05,05,08,36,16.10
2013,05,05,08,37,16.10
2013,05,05,08,38,16.20
2013,05,05,08,39,16.30
2013,05,05,08,40,16.30
2013,05,05,08,41,16.40
2013,05,05,08,42,16.40
2013,05,05,08,43,16.50
2013,05,05,08,44,16.60
2013,05,05,08,45,16.70
2013,05,05,08,46,16.80
2013,05,05,08,47,16.90
2013,05,05,08,48,17.00
2013,05,05,08,49,17.10
2013,05,05,08,50,17.20
2013,05,05,08,51,17.30
2013,05,05,08,52,17.40
2013,05,05,08,53,17.50
2013,05,05,08,54,17.50
2013,05,05,08,55,17.60
2013,05,05,08,56,17.70
2013,05,05,08,57,17.70
2013,05,05,08,58,17.80
2013,05,05,08,59,17.90
2013,05,05,09,00,17.90
2013,05,05,09,01,18.10
2013,05,05,09,02,18.20
2013,05,05,09,03,18.30
2013,05,05,09,04,18.50
2013,05,05,09,05,18.60
2013,05,05,09,06,18.70
2013,05,05,09,07,18.80
2013,05,05,09,08,18.90
2013,05,05,09,09,19.00
2013,05,05,09,10,19.10
2013,05,05,09,11,19.10
2013,05,05,09,12,19.10
2013,05,05,09,13,19.10
2013,05,05,09,14,19.20
2013,05,05,09,15,19.30
2013,05,05,09,16,19.40
2013,05,05,09,17,19.40
2013,05,05,09,18,19.50
2013,05,05,09,19,19.50
2013,05,05,09,20,19.60
2013,05,05,09,21,19.60
2013,05,05,09,22,19.70
2013,05,05,09,23,19.70
2013,05,05,09,24,19.70
2013,05,05,09,25,19.70
2013,05,05,09,26,19.70
2013,05,05,09,27,19.80
2013,05,05,09,28,19.80
2013,05,05,09,29,19.80
2013,05,05,09,30,19.80
2013,05,05,09,31,19.90
2013,05,05,09,32,19.90
2013,05,05,09,33,20.10
2013,05,05,09,34,20.10
2013,05,05,09,35,20.20
2013,05,05,09,36,20.20
2013,05,05,09,37,20.20
2013,05,05,09,38,20.30
2013,05,05,09,39,20.30
2013,05,05,09,40,20.40
2013,05,05,09,41,20.40
2013,05,05,09,42,20.50
2013,05,05,09,43,20.60
2013,05,05,09,44,20.60
2013,05,05,09,45,20.60
2013,05,05,09,46,20.70
2013,05,05,09,47,20.70
2013,05,05,09,48,20.80
2013,05,05,09,49,20.80
2013,05,05,09,50,20.90
2013,05,05,09,51,21.00
2013,05,05,09,52,21.00
2013,05,05,09,53,21.00
2013,05,05,09,54,21.10
2013,05,05,09,55,21.10
2013,05,05,09,56,21.10
2013,05,05,09,57,21.10
2013,05,05,09,58,21.20
2013,05,05,09,59,21.30
2013,05,05,10,00,21.30
2013,05,05,10,01,21.30
2013,05,05,10,02,21.40
2013,05,05,10,03,21.50
2013,05,05,10,04,21.60
2013,05,05,10,05,21.60
2013,05,05,10,06,21.60
2013,05,05,10,07,21.60
2013,05,05,10,08,21.60
2013,05,05,10,09,21.60
2013,05,05,10,10,21.60
2013,05,05,10,11,21.60
2013,05,05,10,12,21.60
2013,05,05,10,13,21.70
2013,05,05,10,14,21.70
2013,05,05,10,15,21.70
2013,05,05,10,16,21.80
2013,05,05,10,17,21.80
2013,05,05,10,18,21.90
2013,05,05,10,19,21.90
2013,05,05,10,20,21.90
2013,05,05,10,21,22.00
2013,05,05,10,22,22.00
2013,05,05,10,23,22.10
2013,05,05,10,24,22.10
2013,05,05,10,25,22.20
2013,05,05,10,26,22.20
2013,05,05,10,27,22.20
2013,05,05,10,28,22.30
2013,05,05,10,29,22.30
2013,05,05,10,30,22.20
2013,05,05,10,31,22.20
2013,05,05,10,32,22.30
2013,05,05,10,33,22.30
2013,05,05,10,34,22.40
2013,05,05,10,35,22.40
2013,05,05,10,36,22.40
2013,05,05,10,37,22.40
2013,05,05,10,38,22.40
2013,05,05,10,39,22.50
2013,05,05,10,40,22.60
2013,05,05,10,41,22.60
2013,05,05,10,42,22.70
2013,05,05,10,43,22.70
2013,05,05,10,44,22.80
2013,05,05,10,45,22.80
2013,05,05,10,46,22.80
2013,05,05,10,47,22.80
2013,05,05,10,48,22.80
2013,05,05,10,49,22.80
2013,05,05,10,50,22.80
2013,05,05,10,51,22.80
2013,05,05,10,52,22.80
2013,05,05,10,53,22.90
2013,05,05,10,54,22.90
2013,05,05,10,55,22.90
2013,05,05,10,56,22.90
2013,05,05,10,57,23.00
2013,05,05,10,58,23.10
2013,05,05,10,59,23.20
2013,05,05,11,00,23.20
2013,05,05,11,01,23.30
2013,05,05,11,02,23.30
2013,05,05,11,03,23.30
2013,05,05,11,04,23.40
2013,05,05,11,05,23.50
2013,05,05,11,06,23.60
2013,05,05,11,07,23.60
2013,05,05,11,08,23.60
2013,05,05,11,09,23.70
2013,05,05,11,10,23.70
2013,05,05,11,11,23.70
2013,05,05,11,12,23.70
2013,05,05,11,13,23.70
2013,05,05,11,14,23.80
2013,05,05,11,15,23.80
2013,05,05,11,16,23.80
2013,05,05,11,17,23.90
2013,05,05,11,18,23.90
2013,05,05,11,19,23.90
2013,05,05,11,20,23.90
2013,05,05,11,21,24.00
2013,05,05,11,22,24.10
2013,05,05,11,23,24.10
2013,05,05,11,24,24.10
2013,05,05,11,25,24.10
2013,05,05,11,26,24.10
2013,05,05,11,27,24.10
2013,05,05,11,28,24.10
2013,05,05,11,29,24.10
2013,05,05,11,30,24.10
2013,05,05,11,31,24.10
2013,05,05,11,32,24.10
2013,05,05,11,33,24.10
2013,05,05,11,34,24.10
2013,05,05,11,35,24.20
2013,05,05,11,36,24.20
2013,05,05,11,37,24.30
2013,05,05,11,38,24.30
2013,05,05,11,39,24.30
2013,05,05,11,40,24.40
2013,05,05,11,41,24.40
2013,05,05,11,42,24.40
2013,05,05,11,43,24.50
2013,05,05,11,44,24.60
2013,05,05,11,45,24.60
2013,05,05,11,46,24.70
2013,05,05,11,47,24.70
2013,05,05,11,48,24.70
2013,05,05,11,49,24.70
2013,05,05,11,50,24.70
2013,05,05,11,51,24.60
2013,05,05,11,52,24.60
2013,05,05,11,53,24.70
2013,05,05,11,54,24.70
2013,05,05,11,55,24.80
2013,05,05,11,56,24.80
2013,05,05,11,57,24.90
2013,05,05,11,58,24.90
2013,05,05,11,59,24.90
2013,05,05,12,00,24.90
2013,05,05,12,01,24.90
2013,05,05,12,02,24.90
2013,05,05,12,03,25.00
2013,05,05,12,04,25.10
2013,05,05,12,05,25.10
2013,05,05,12,06,25.20
2013,05,05,12,07,25.20
2013,05,05,12,08,25.20
2013,05,05,12,09,25.20
2013,05,05,12,10,25.20
2013,05,05,12,11,25.20
2013,05,05,12,12,25.10
2013,05,05,12,13,25.10
2013,05,05,12,14,25.10
2013,05,05,12,15,25.20
2013,05,05,12,16,25.30
2013,05,05,12,17,25.30
2013,05,05,12,18,25.30
2013,05,05,12,19,25.40
2013,05,05,12,20,25.50
2013,05,05,12,21,25.50
2013,05,05,12,22,25.50
2013,05,05,12,23,25.60
2013,05,05,12,24,25.60
2013,05,05,12,25,25.60
2013,05,05,12,26,25.60
2013,05,05,12,27,25.60
2013,05,05,12,28,25.50
2013,05,05,12,29,25.50
2013,05,05,12,30,25.40
2013,05,05,12,31,25.40
2013,05,05,12,32,25.30
2013,05,05,12,33,25.30
2013,05,05,12,34,25.20
2013,05,05,12,35,25.20
2013,05,05,12,36,25.20
2013,05,05,12,37,25.30
2013,05,05,12,38,25.30
2013,05,05,12,39,25.40
2013,05,05,12,40,25.50
2013,05,05,12,41,25.50
2013,05,05,12,42,25.60
2013,05,05,12,43,25.70
2013,05,05,12,44,25.70
2013,05,05,12,45,25.80
2013,05,05,12,46,25.80
2013,05,05,12,47,25.90
2013,05,05,12,48,25.90
2013,05,05,12,49,25.90
2013,05,05,12,50,25.90
2013,05,05,12,51,25.90
2013,05,05,12,52,25.90
2013,05,05,12,53,25.90
2013,05,05,12,54,25.90
2013,05,05,12,55,25.80
2013,05,05,12,56,25.80
2013,05,05,12,57,25.90
2013,05,05,12,58,25.90
2013,05,05,12,59,25.90
2013,05,05,13,00,26.00
2013,05,05,13,01,26.00
2013,05,05,13,02,25.90
2013,05,05,13,03,25.90
2013,05,05,13,04,25.90
2013,05,05,13,05,26.00
2013,05,05,13,06,26.00
2013,05,05,13,07,26.00
2013,05,05,13,08,26.10
2013,05,05,13,09,26.00
2013,05,05,13,10,26.00
2013,05,05,13,11,26.00
2013,05,05,13,12,26.00
2013,05,05,13,13,26.00
2013,05,05,13,14,26.00
2013,05,05,13,15,26.10
2013,05,05,13,16,26.10
2013,05,05,13,17,26.20
2013,05,05,13,18,26.20
2013,05,05,13,19,26.20
2013,05,05,13,20,26.20
2013,05,05,13,21,26.20
2013,05,05,13,22,26.20
2013,05,05,13,23,26.20
2013,05,05,13,24,26.20
2013,05,05,13,25,26.20
2013,05,05,13,26,26.20
2013,05,05,13,27,26.20
2013,05,05,13,28,26.20
2013,05,05,13,29,26.20
2013,05,05,13,30,26.30
2013,05,05,13,31,26.40
2013,05,05,13,32,26.50
2013,05,05,13,33,26.60
2013,05,05,13,34,26.60
2013,05,05,13,35,26.60
2013,05,05,13,36,26.60
2013,05,05,13,37,26.60
2013,05,05,13,38,26.70
2013,05,05,13,39,26.70
2013,05,05,13,40,26.80
2013,05,05,13,41,26.70
2013,05,05,13,42,26.80
2013,05,05,13,43,26.80
2013,05,05,13,44,26.80
2013,05,05,13,45,26.80
2013,05,05,13,46,26.80
2013,05,05,13,47,26.90
2013,05,05,13,48,26.90
2013,05,05,13,49,26.90
2013,05,05,13,50,27.00
2013,05,05,13,51,27.10
2013,05,05,13,52,27.10
2013,05,05,13,53,27.10
2013,05,05,13,54,27.00
2013,05,05,13,55,27.00
2013,05,05,13,56,27.10
2013,05,05,13,57,27.10
2013,05,05,13,58,27.10
2013,05,05,13,59,27.10
2013,05,05,14,00,27.20
2013,05,05,14,01,27.30
2013,05,05,14,02,27.30
2013,05,05,14,03,27.30
2013,05,05,14,04,27.40
2013,05,05,14,05,27.40
2013,05,05,14,06,27.40
2013,05,05,14,07,27.50
2013,05,05,14,08,27.60
2013,05,05,14,09,27.60
2013,05,05,14,10,27.60
2013,05,05,14,11,27.70
2013,05,05,14,12,27.70
2013,05,05,14,13,27.80
2013,05,05,14,14,27.70
2013,05,05,14,15,27.70
2013,05,05,14,16,27.60
2013,05,05,14,17,27.60
2013,05,05,14,18,27.50
2013,05,05,14,19,27.40
2013,05,05,14,20,27.30
2013,05,05,14,21,27.20
2013,05,05,14,22,27.10
2013,05,05,14,23,27.00
2013,05,05,14,24,26.90
2013,05,05,14,25,26.90
2013,05,05,14,26,26.80
2013,05,05,14,27,26.60
2013,05,05,14,28,26.60
2013,05,05,14,29,26.70
2013,05,05,14,30,26.80
2013,05,05,14,31,26.90
2013,05,05,14,32,27.00
2013,05,05,14,33,27.10
2013,05,05,14,34,27.20
2013,05,05,14,35,27.30
2013,05,05,14,36,27.30
2013,05,05,14,37,27.30
2013,05,05,14,38,27.30
2013,05,05,14,39,27.20
2013,05,05,14,40,27.20
2013,05,05,14,41,27.10
2013,05,05,14,42,26.60
2013,05,05,14,43,25.80
2013,05,05,14,44,24.90
2013,05,05,14,45,24.10
2013,05,05,14,46,23.50
2013,05,05,14,47,23.10
2013,05,05,14,48,22.90
2013,05,05,14,49,22.60
2013,05,05,14,50,22.30
2013,05,05,14,51,22.20
2013,05,05,14,52,22.10
2013,05,05,14,53,21.90
2013,05,05,14,54,21.60
2013,05,05,14,55,21.60
2013,05,05,14,56,21.60
2013,05,05,14,57,21.80
2013,05,05,14,58,22.00
2013,05,05,14,59,22.20
2013,05,05,15,00,22.40
2013,05,05,15,01,22.50
2013,05,05,15,02,22.60
2013,05,05,15,03,22.70
2013,05,05,15,04,22.90
2013,05,05,15,05,23.20
2013,05,05,15,06,23.60
2013,05,05,15,07,24.00
2013,05,05,15,08,24.40
2013,05,05,15,09,24.80
2013,05,05,15,10,25.10
2013,05,05,15,11,25.40
2013,05,05,15,12,25.80
2013,05,05,15,13,26.00
2013,05,05,15,14,26.10
2013,05,05,15,15,26.20
2013,05,05,15,16,26.20
2013,05,05,15,17,26.30
2013,05,05,15,18,26.30
2013,05,05,15,19,26.30
2013,05,05,15,20,26.30
2013,05,05,15,21,26.30
2013,05,05,15,22,26.30
2013,05,05,15,23,26.30
2013,05,05,15,24,26.30
2013,05,05,15,25,26.10
2013,05,05,15,26,25.70
2013,05,05,15,27,25.00
2013,05,05,15,28,24.40
2013,05,05,15,29,23.80
2013,05,05,15,30,23.10
2013,05,05,15,31,22.50
2013,05,05,15,32,22.20
2013,05,05,15,33,22.00
2013,05,05,15,34,21.90
2013,05,05,15,35,21.70
2013,05,05,15,36,21.60
2013,05,05,15,37,21.50
2013,05,05,15,38,21.40
2013,05,05,15,39,21.30
2013,05,05,15,40,21.30
2013,05,05,15,41,21.30
2013,05,05,15,42,21.30
2013,05,05,15,43,21.40
2013,05,05,15,44,21.50
2013,05,05,15,45,21.60
2013,05,05,15,46,21.70
2013,05,05,15,47,21.80
2013,05,05,15,48,21.90
2013,05,05,15,49,22.00
2013,05,05,15,50,22.10
2013,05,05,15,51,22.30
2013,05,05,15,52,22.70
2013,05,05,15,53,22.90
2013,05,05,15,54,23.00
2013,05,05,15,55,23.00
2013,05,05,15,56,22.90
2013,05,05,15,57,22.70
2013,05,05,15,58,22.50
2013,05,05,15,59,22.30
2013,05,05,16,00,22.20
2013,05,05,16,01,22.10
2013,05,05,16,02,22.10
2013,05,05,16,03,22.00
2013,05,05,16,04,22.10
2013,05,05,16,05,22.10
2013,05,05,16,06,22.30
2013,05,05,16,07,22.40
2013,05,05,16,08,22.50
2013,05,05,16,09,22.50
2013,05,05,16,10,22.50
2013,05,05,16,11,22.60
2013,05,05,16,12,22.70
2013,05,05,16,13,22.80
2013,05,05,16,14,22.70
2013,05,05,16,15,22.70
2013,05,05,16,16,22.60
2013,05,05,16,17,22.60
2013,05,05,16,18,22.60
2013,05,05,16,19,22.60
2013,05,05,16,20,22.60
2013,05,05,16,21,22.60
2013,05,05,16,22,22.60
2013,05,05,16,23,22.60
2013,05,05,16,24,22.60
2013,05,05,16,25,22.60
2013,05,05,16,26,22.60
2013,05,05,16,27,22.50
2013,05,05,16,28,22.40
2013,05,05,16,29,22.40
2013,05,05,16,30,22.40
2013,05,05,16,31,22.30
2013,05,05,16,32,22.40
2013,05,05,16,33,22.40
2013,05,05,16,34,22.40
2013,05,05,16,35,22.40
2013,05,05,16,36,22.50
2013,05,05,16,37,22.50
2013,05,05,16,38,22.40
2013,05,05,16,39,22.30
2013,05,05,16,40,22.20
2013,05,05,16,41,21.90
2013,05,05,16,42,21.70
2013,05,05,16,43,21.60
2013,05,05,16,44,21.50
2013,05,05,16,45,21.30
2013,05,05,16,46,21.30
2013,05,05,16,47,21.30
2013,05,05,16,48,21.30
2013,05,05,16,49,21.30
2013,05,05,16,50,21.30
2013,05,05,16,51,21.30
2013,05,05,16,52,21.40
2013,05,05,16,53,21.40
2013,05,05,16,54,21.40
2013,05,05,16,55,21.50
2013,05,05,16,56,21.60
2013,05,05,16,57,21.60
2013,05,05,16,58,21.60
2013,05,05,16,59,21.60
2013,05,05,17,00,21.80
2013,05,05,17,01,22.00
2013,05,05,17,02,22.20
2013,05,05,17,03,22.40
2013,05,05,17,04,22.50
2013,05,05,17,05,22.60
2013,05,05,17,06,22.60
2013,05,05,17,07,22.70
2013,05,05,17,08,22.80
2013,05,05,17,09,22.90
2013,05,05,17,10,23.00
2013,05,05,17,11,23.10
2013,05,05,17,12,23.20
2013,05,05,17,13,23.20
2013,05,05,17,14,23.30
2013,05,05,17,15,23.30
2013,05,05,17,16,23.30
2013,05,05,17,17,23.40
2013,05,05,17,18,23.40
2013,05,05,17,19,23.60
2013,05,05,17,20,23.60
2013,05,05,17,21,23.60
2013,05,05,17,22,23.70
2013,05,05,17,23,23.80